GW3962 Weather Reports


Display with metric or nautical units.
time (UTC)temp
F
wind
direction
speed
MPH
gust
MPH
rain 1hr
in
rain 24hr
in
rain mn
in
humidity
%
barometer
mb
20260503192234 77 189 6.0 8.0 0.00 0.00 0.00 35 1020.9
20260503191732 77 172 7.0 11.0 0.00 0.00 0.00 33 1021.2
20260503191229 77 239 7.0 8.0 0.00 0.00 0.00 35 1021.1
20260503190725 77 171 5.0 8.0 0.00 0.00 0.00 35 1020.9
20260503190222 76 203 10.0 10.0 0.00 0.00 0.00 34 1021.2
20260503185720 76 220 7.0 8.0 0.00 0.00 0.00 34 1021.5
20260503185215 76 176 7.0 9.0 0.00 0.00 0.00 35 1021.5
20260503184709 76 178 6.0 7.0 0.00 0.00 0.00 36 1021.7
20260503184206 77 190 6.0 8.0 0.00 0.00 0.00 34 1021.6
20260503183703 77 184 6.0 8.0 0.00 0.00 0.00 34 1021.8
20260503183200 76 195 10.0 14.0 0.00 0.00 0.00 34 1021.7
20260503182658 76 144 7.0 8.0 0.00 0.00 0.00 36 1022.0
20260503182156 77 194 9.0 11.0 0.00 0.00 0.00 34 1022.0
20260503181652 77 272 2.0 3.0 0.00 0.00 0.00 36 1022.1
20260503181149 77 278 6.0 9.0 0.00 0.00 0.00 37 1022.0
20260503180646 76 160 7.0 8.0 0.00 0.00 0.00 35 1022.5
20260503180144 75 273 3.0 3.0 0.00 0.00 0.00 38 1022.3
20260503175641 76 226 6.0 9.0 0.00 0.00 0.00 41 1022.5
20260503175138 75 175 6.0 7.0 0.00 0.00 0.00 37 1022.8
20260503174634 74 232 6.0 7.0 0.00 0.00 0.00 37 1022.8
20260503174132 75 230 10.0 10.0 0.00 0.00 0.00 40 1022.7
20260503173627 75 214 5.0 7.0 0.00 0.00 0.00 38 1022.8
20260503173124 75 225 8.0 10.0 0.00 0.00 0.00 42 1022.9
20260503172620 74 228 6.0 10.0 0.00 0.00 0.00 42 1022.7
20260503172118 74 194 6.0 9.0 0.00 0.00 0.00 40 1023.2
20260503171614 75 227 9.0 10.0 0.00 0.00 0.00 41 1023.1
20260503171112 74 209 8.0 11.0 0.00 0.00 0.00 43 1023.0
20260503170609 74 242 6.0 7.0 0.00 0.00 0.00 43 1023.2
20260503170105 74 243 4.0 6.0 0.00 0.00 0.00 47 1023.4
20260503151000 68 229 4.0 5.0 0.00 0.00 0.00 63 1023.7
20260503150457 69 268 5.0 6.0 0.00 0.00 0.00 62 1024.0
20260503131350 58 261 2.0 3.0 0.00 0.00 0.00 76 1023.2
20260503130847 58 271 2.0 2.0 0.00 0.00 0.00 77 1023.2
20260503130345 57 285 1.0 1.0 0.00 0.00 0.00 79 1023.3
20260503110744 55 288 1.0 1.0 0.00 0.00 0.00 80 1021.9
20260503110241 55 288 1.0 1.0 0.00 0.00 0.00 79 1022.1
20260503100207 56 293 1.0 1.0 0.00 0.00 0.00 77 1021.8
20260503090131 56 268 1.0 1.0 0.00 0.00 0.00 76 1021.7
20260503081602 55 267 1.0 1.0 0.00 0.00 0.00 85 1022.0
20260503081059 55 267 1.0 1.0 0.00 0.00 0.00 84 1021.8
20260503080555 55 267 1.0 1.0 0.00 0.00 0.00 84 1021.8
20260503072529 58 267 1.0 1.0 0.00 0.00 0.00 76 1022.1
20260503072026 57 267 1.0 1.0 0.00 0.00 0.00 79 1022.0
20260503071523 56 267 1.0 1.0 0.00 0.00 0.00 83 1022.4
20260503071020 56 267 1.0 1.0 0.00 0.00 0.00 83 1022.3
20260503070516 56 267 1.0 1.0 0.00 0.00 0.00 83 1022.4
20260503054934 61 281 1.0 1.0 0.00 0.00 0.00 67 1022.4
20260503054430 61 281 1.0 1.0 0.00 0.00 0.00 68 1022.5
20260503053928 61 272 1.0 1.0 0.00 0.00 0.00 66 1022.5
20260503053426 61 262 2.0 2.0 0.00 0.00 0.00 67 1022.8
20260503052922 61 281 1.0 1.0 0.00 0.00 0.00 68 1022.5
20260503052419 60 272 2.0 2.0 0.00 0.00 0.00 69 1022.6
20260503051915 60 281 1.0 1.0 0.00 0.00 0.00 71 1022.5
20260503051412 60 281 1.0 1.0 0.00 0.00 0.00 70 1022.6
20260503050909 60 281 1.0 1.0 0.00 0.00 0.00 70 1022.8
20260503050405 60 261 2.0 2.0 0.00 0.00 0.00 69 1022.8
20260503045902 62 253 2.0 2.0 0.00 0.00 0.00 68 1022.6
20260503045400 63 252 2.0 2.0 0.00 0.00 0.00 62 1022.4
20260503044856 64 244 3.0 3.0 0.00 0.00 0.00 60 1022.6
20260503044353 64 239 3.0 3.0 0.00 0.00 0.00 60 1022.4
20260503043850 64 244 2.0 2.0 0.00 0.00 0.00 59 1022.6
20260503043347 64 236 3.0 3.0 0.00 0.00 0.00 58 1022.5
20260503042843 64 241 2.0 2.0 0.00 0.00 0.00 59 1022.6
20260503042340 64 258 2.0 2.0 0.00 0.00 0.00 59 1022.3
20260503041836 64 260 1.0 2.0 0.00 0.00 0.00 59 1022.5
20260503041334 64 260 2.0 2.0 0.00 0.00 0.00 59 1022.4
20260503040831 64 260 1.0 1.0 0.00 0.00 0.00 59 1022.3
20260503040329 65 260 2.0 2.0 0.00 0.00 0.00 58 1022.1
20260503035826 64 260 2.0 2.0 0.00 0.00 0.00 58 1022.0
20260503035322 65 261 1.0 1.0 0.00 0.00 0.00 58 1022.1
20260503034820 65 261 1.0 2.0 0.00 0.00 0.00 58 1022.4
20260503034317 65 261 1.0 1.0 0.00 0.00 0.00 58 1022.4
20260503033814 65 261 1.0 1.0 0.00 0.00 0.00 58 1022.4
20260503033311 65 261 1.0 1.0 0.00 0.00 0.00 57 1022.1
20260503032810 64 266 1.0 1.0 0.00 0.00 0.00 58 1021.9
20260503032309 64 266 1.0 1.0 0.00 0.00 0.00 59 1022.1
20260503031805 64 264 1.0 1.0 0.00 0.00 0.00 59 1021.9
20260503031303 65 228 2.0 2.0 0.00 0.00 0.00 57 1021.9
20260503030759 66 194 2.0 2.0 0.00 0.00 0.00 56 1021.8
20260503030255 66 169 2.0 2.0 0.00 0.00 0.00 55 1021.8
20260503025752 66 139 2.0 2.0 0.00 0.00 0.00 55 1021.7
20260503025250 66 124 3.0 3.0 0.00 0.00 0.00 55 1021.9
20260503024746 66 119 4.0 5.0 0.00 0.00 0.00 54 1021.9
20260503024244 66 132 3.0 3.0 0.00 0.00 0.00 54 1021.8
20260503023740 66 123 3.0 3.0 0.00 0.00 0.00 55 1021.5
20260503023237 66 118 2.0 3.0 0.00 0.00 0.00 55 1021.6
20260503022733 66 122 2.0 2.0 0.00 0.00 0.00 55 1021.3
20260503022233 66 132 3.0 3.0 0.00 0.00 0.00 55 1021.3
20260503021730 66 351 1.0 1.0 0.00 0.00 0.00 55 1021.3
20260503021226 66 92 2.0 3.0 0.00 0.00 0.00 55 1021.2
20260503020724 66 28 2.0 2.0 0.00 0.00 0.00 55 1021.2
20260503020222 66 105 3.0 3.0 0.00 0.00 0.00 54 1021.0
20260503015718 66 110 2.0 3.0 0.00 0.00 0.00 54 1021.1
20260503015215 67 349 1.0 1.0 0.00 0.00 0.00 53 1021.0
20260503014711 67 82 2.0 2.0 0.00 0.00 0.00 53 1021.0
20260503014209 67 71 2.0 3.0 0.00 0.00 0.00 53 1021.1
20260503013706 67 47 2.0 2.0 0.00 0.00 0.00 52 1020.8
20260503013204 68 32 2.0 3.0 0.00 0.00 0.00 51 1020.9
20260503012701 68 124 3.0 3.0 0.00 0.00 0.00 51 1020.9
20260503012158 68 10 2.0 3.0 0.00 0.00 0.00 51 1021.1
20260503011654 68 339 1.0 1.0 0.00 0.00 0.00 50 1021.0
20260503011151 69 69 2.0 3.0 0.00 0.00 0.00 49 1020.6
20260503010647 69 345 2.0 3.0 0.00 0.00 0.00 47 1020.7
20260503010145 70 0 2.0 3.0 0.00 0.00 0.00 46 1020.8
20260503005642 70 10 1.0 2.0 0.00 0.00 0.00 45 1020.9
20260503005139 70 354 2.0 2.0 0.00 0.00 0.00 44 1020.6
20260503004635 71 66 2.0 2.0 0.00 0.00 0.00 44 1020.6
20260503004134 71 3 1.0 2.0 0.00 0.00 0.00 44 1020.8
20260503003630 71 34 2.0 2.0 0.00 0.00 0.00 43 1020.6
20260503003127 71 359 3.0 3.0 0.00 0.00 0.00 43 1020.6
20260503002624 72 46 2.0 2.0 0.00 0.00 0.00 42 1020.6
20260503002121 72 33 2.0 2.0 0.00 0.00 0.00 42 1020.5
20260503001617 72 69 7.0 8.0 0.00 0.00 0.00 41 1020.6
20260503001114 72 78 4.0 6.0 0.00 0.00 0.00 40 1020.4
20260503000612 72 65 4.0 5.0 0.00 0.00 0.00 39 1020.5
20260503000109 72 346 1.0 2.0 0.00 0.00 0.00 41 1020.4
20260502235605 72 74 5.0 6.0 0.00 0.00 0.00 40 1020.6
20260502235103 72 32 4.0 5.0 0.00 0.00 0.00 40 1020.5
20260502234559 73 51 8.0 10.0 0.00 0.00 0.00 39 1020.5
20260502234057 73 62 4.0 7.0 0.00 0.00 0.00 40 1020.5
20260502233557 73 37 8.0 10.0 0.00 0.00 0.00 40 1020.4
20260502233054 73 46 6.0 7.0 0.00 0.00 0.00 41 1020.2
20260502232550 75 33 2.0 2.0 0.00 0.00 0.00 39 1020.6
20260502232048 74 318 0.0 0.0 0.00 0.00 0.00 40 1020.3
20260502231545 73 328 3.0 5.0 0.00 0.00 0.00 42 1020.4
20260502231043 75 63 5.0 7.0 0.00 0.00 0.00 40 1020.3
20260502230541 73 350 3.0 5.0 0.00 0.00 0.00 39 1020.4
20260502230039 74 64 3.0 6.0 0.00 0.00 0.00 40 1020.3
20260502225534 74 83 5.0 6.0 0.00 0.00 0.00 41 1020.3
20260502225031 73 31 3.0 3.0 0.00 0.00 0.00 41 1020.4
20260502224527 75 66 5.0 9.0 0.00 0.00 0.00 40 1020.4
20260502224025 75 19 3.0 5.0 0.00 0.00 0.00 40 1020.4
20260502223522 73 69 7.0 9.0 0.00 0.00 0.00 41 1020.5
20260502223021 75 50 1.0 2.0 0.00 0.00 0.00 39 1020.3
20260502222517 75 307 0.0 1.0 0.00 0.00 0.00 41 1020.5
20260502222014 74 15 1.0 2.0 0.00 0.00 0.00 41 1020.4
20260502221509 74 48 2.0 3.0 0.00 0.00 0.00 40 1020.5
20260502221007 74 19 6.0 8.0 0.00 0.00 0.00 41 1020.5
20260502220502 73 74 4.0 6.0 0.00 0.00 0.00 41 1020.5
20260502215959 73 39 6.0 9.0 0.00 0.00 0.00 42 1020.5
20260502215457 75 62 6.0 8.0 0.00 0.00 0.00 40 1020.5
20260502214953 73 331 5.0 6.0 0.00 0.00 0.00 41 1020.7
20260502214450 73 49 4.0 5.0 0.00 0.00 0.00 41 1020.6
20260502213947 74 308 0.0 1.0 0.00 0.00 0.00 42 1020.9
20260502213444 74 124 3.0 5.0 0.00 0.00 0.00 40 1020.7
20260502212943 74 58 2.0 3.0 0.00 0.00 0.00 40 1020.8
20260502212441 74 98 2.0 6.0 0.00 0.00 0.00 39 1020.8
20260502211938 73 18 3.0 3.0 0.00 0.00 0.00 39 1020.8
20260502211434 74 348 3.0 7.0 0.00 0.00 0.00 39 1021.1
20260502210931 73 114 9.0 10.0 0.00 0.00 0.00 37 1021.0
20260502210428 76 62 5.0 7.0 0.00 0.00 0.00 37 1021.1
20260502205925 75 45 4.0 8.0 0.00 0.00 0.00 40 1021.2
20260502205421 73 29 2.0 3.0 0.00 0.00 0.00 38 1021.5
20260502204919 72 80 12.0 13.0 0.00 0.00 0.00 38 1021.3
20260502204416 73 56 4.0 7.0 0.00 0.00 0.00 40 1021.5
20260502203914 74 28 2.0 5.0 0.00 0.00 0.00 39 1021.6
20260502203411 74 13 3.0 5.0 0.00 0.00 0.00 40 1021.7
20260502202906 74 66 6.0 7.0 0.00 0.00 0.00 39 1021.6
20260502202403 74 32 3.0 5.0 0.00 0.00 0.00 39 1021.7
20260502201901 73 44 9.0 11.0 0.00 0.00 0.00 40 1021.5
20260502201357 74 38 5.0 8.0 0.00 0.00 0.00 39 1021.6
20260502200854 73 100 4.0 7.0 0.00 0.00 0.00 40 1021.7
20260502200349 73 70 9.0 13.0 0.00 0.00 0.00 38 1021.7
20260502195848 71 41 4.0 6.0 0.00 0.00 0.00 39 1021.7
20260502195344 72 21 7.0 10.0 0.00 0.00 0.00 40 1021.7
20260502194841 73 22 2.0 3.0 0.00 0.00 0.00 40 1021.7
20260502194338 74 311 6.0 9.0 0.00 0.00 0.00 42 1021.7
20260502193833 73 337 6.0 8.0 0.00 0.00 0.00 41 1021.7
20260502193331 71 59 6.0 7.0 0.00 0.00 0.00 43 1022.0
20260502192826 72 48 11.0 11.0 0.00 0.00 0.00 43 1021.8